Regional Weather Roundup
Issued by NWS

Home | Current Version | Previous Version | Text Only | Print | Product List | Glossary On
Versions: 1 2 3 4 5 6 7 8 9 10 11 12 13 14 15 16 17 18 19 20 21 22 23 24 25 26 27 28 29 30 31 32 33 34 35 36 37 38 39 40 41 42 43 44 45 46 47 48 49 50
779
ASUS44 KLIX 250610
RWRLA
LOUISIANA WEATHER ROUNDUP
NATIONAL WEATHER SERVICE NEW ORLEANS LA
1200 AM CST SUN JAN 25 2015

NOTE: "FAIR" INDICATES FEW OR NO CLOUDS BELOW 12,000 FEET WITH NO
      SIGNIFICANT WEATHER AND/OR OBSTRUCTIONS TO VISIBILITY.
      SKY/WX - SKY CONDITION AND SIGNIFICANT WEATHER.
      TMP - AIR TEMPERATURE.    DP   - DEWPOINT TEMPERATURE.
      RH  - RELATIVE HUMIDITY.  PRES - PRESSURE.
      HX  - HEAT INDEX.         WCI  - WIND CHILL INDEX.

*  THESE STATIONS ARE NOT NWS OR FAA STATIONS AND ARE NOT UNDER
   NWS QUALITY CONTROL.

LAZ040-048-061>063-065-066-069-250700-
SOUTHEAST LOUISIANA

CITY           SKY/WX    TMP DP  RH WIND       PRES   REMARKS
N.O. AUDUBON   NOT AVBL
N.O. INTL ARPT PTCLDY    44  38  79 SW6       30.09F
6HR MIN TEMP:  44; 6HR MAX TEMP:  53;

N.O. LAKEFRONT CLEAR     50  41  71 SW13      30.09F
6HR MIN TEMP:  50; 6HR MAX TEMP:  54;

N.O. DOWNTOWN* FAIR      46  37  71 SW5       30.09F
6HR MIN TEMP:  46; 6HR MAX TEMP:  54;

SLIDELL        PTCLDY    47  40  76 CALM      30.07F
6HR MIN TEMP:  37; 6HR MAX TEMP:  47;

BATON ROUGE    CLEAR     45  38  76 SW7       30.07F
6HR MIN TEMP:  45; 6HR MAX TEMP:  51;

BOOTHVILLE     PTCLDY    48  41  76 W8        30.10F
6HR MIN TEMP:  47; 6HR MAX TEMP:  50;

BELLE CHASSE   CLEAR     47  40  76 W6        30.09F
6HR MIN TEMP:  41; 6HR MAX TEMP:  52;

BOGALUSA*        N/A     37  33  87 CALM      30.09S
6HR MIN TEMP:  35; 6HR MAX TEMP:  46;

GALLIANO*      CLEAR     46  43  88 MISG      30.10F
6HR MIN TEMP:  46; 6HR MAX TEMP:  52;

NEW ROADS*     FAIR      44  39  83 SW5       30.08S
6HR MIN TEMP:  44; 6HR MAX TEMP:  51;

GONZALES*      FAIR      41  41  99 CALM      30.08F
6HR MIN TEMP:  41; 6HR MAX TEMP:  51;

HAMMOND*       CLEAR     45  37  76 CALM      30.09F
HOUMA*         PTCLDY    44  42  93 CALM      30.10S
6HR MIN TEMP:  44; 6HR MAX TEMP:  49;

PORT FOURCHON* CLEAR     52  45  76 W8        30.13F

$$

LAZ041-044-053-054-250700-
SOUTHWEST LOUISIANA

CITY           SKY/WX    TMP DP  RH WIND       PRES   REMARKS
LAKE CHARLES   CLEAR     47  45  93 W6        30.08S
6HR MIN TEMP:  46; 6HR MAX TEMP:  51;

LAFAYETTE      CLEAR     43  41  93 SW7       30.09S
6HR MIN TEMP:  42; 6HR MAX TEMP:  51;

PATTERSON      PTCLDY    43  39  87 CALM      30.10F
6HR MIN TEMP:  43; 6HR MAX TEMP:  48;

SALT POINT       N/A     50  47  89 W5        30.09S
6HR MIN TEMP:  48; 6HR MAX TEMP:  51;

NEW IBERIA     CLEAR     43  40  89 SW5       30.10S
6HR MIN TEMP:  43; 6HR MAX TEMP:  51;

CHENAULT AIRPK CLEAR     46  44  91 SW5       30.09S
6HR MIN TEMP:  46; 6HR MAX TEMP:  52;


$$

LAZ027-028-250700-
CENTRAL LOUISIANA

CITY           SKY/WX    TMP DP  RH WIND       PRES   REMARKS
FORT POLK      CLEAR     43  39  87 SW5       30.05S
6HR MIN TEMP:  43; 6HR MAX TEMP:  54;

ALEXANDRIA INT PTCLDY    42  38  85 SW6       30.04S
6HR MIN TEMP:  40; 6HR MAX TEMP:  51;

ALEXANDRIA     PTCLDY    35  33  92 CALM      30.05S
6HR MIN TEMP:  35; 6HR MAX TEMP:  50;


$$

LAZ001-002-250700-
NORTHWEST LOUISIANA

CITY           SKY/WX    TMP DP  RH WIND       PRES   REMARKS
SHREVEPORT     PTCLDY    40  34  79 SW6       30.00F
6HR MIN TEMP:  39; 6HR MAX TEMP:  51;

BARKSDALE AFB  CLEAR     39  33  77 S2        30.00F
6HR MIN TEMP:  36; 6HR MAX TEMP:  53;

DTN SHREVEPORT CLEAR     44  32  62 SW5       30.00F
6HR MIN TEMP:  43; 6HR MAX TEMP:  54;


$$

LAZ014-016-250700-
NORTHEAST LOUISIANA

CITY           SKY/WX    TMP DP  RH WIND       PRES   REMARKS
MONROE         CLEAR     42  36  79 S5        30.01F
6HR MIN TEMP:  41; 6HR MAX TEMP:  50;

TALLULAH       CLEAR     44  35  70 SW3       30.01F
6HR MIN TEMP:  41; 6HR MAX TEMP:  50;


$$




USA.gov is the U.S. government's official web portal to all federal, state and local government web resources and services.